When you browse on this site, cookies collect data to enhance your experience and personalize the content and advertising you see.
Visit our Privacy Policy to learn more. By continuing to use the site, you agree to this use of cookies and data.
  • In Hungary
  • List of Countries
  • For 7 days
  • Water Temperature
  • Satellite Maps
  • Weather Map
  • News
  • Weather Widgets
  • user-avatar
    Login

    Hourly Weather Chodavaram

    Today, 18 January, Friday

    Time Temperature Precipitation Wind Pressure Humidity
    00:00 +20°C° 0 mm 1 mps 741 mmHg 94%
    01:00 +20°C° 0 mm 1 mps 741 mmHg 95%
    02:00 +20°C° 0 mm 1 mps 741 mmHg 96%
    03:00 +20°C° 0 mm 1 mps 741 mmHg 96%
    04:00 +18°C° 0 mm 0 mps 741 mmHg 96%
    05:00 +18°C° 0 mm 0 mps 741 mmHg 97%
    06:00 +19°C° 0 mm 0 mps 742 mmHg 89%
    07:00 +21°C° 0 mm 0 mps 742 mmHg 82%
    08:00 +23°C° 0 mm 0 mps 742 mmHg 74%
    09:00 +26°C° 0 mm 0 mps 742 mmHg 61%
    10:00 +29°C° 0 mm 0 mps 743 mmHg 48%
    11:00 +34°C° 0 mm 1 mps 743 mmHg 35%
    12:00 +34°C° 0 mm 1 mps 742 mmHg 32%
    13:00 +35°C° 0 mm 1 mps 741 mmHg 29%
    14:00 +35°C° 0 mm 1 mps 741 mmHg 26%
    15:00 +34°C° 0 mm 2 mps 741 mmHg 33%
    16:00 +31°C° 0 mm 2 mps 741 mmHg 40%
    17:00 +29°C° 0 mm 2 mps 740 mmHg 47%
    18:00 +27°C° 0 mm 2 mps 741 mmHg 59%
    19:00 +24°C° 0 mm 1 mps 741 mmHg 72%
    20:00 +22°C° 0 mm 1 mps 742 mmHg 85%
    21:00 +22°C° 0 mm 1 mps 742 mmHg 87%
    22:00 +21°C° 0 mm 1 mps 742 mmHg 90%
    23:00 +21°C° 0 mm 1 mps 742 mmHg 93%

    Tomorrow, 19 January, Saturday

    Time Temperature Precipitation Wind Pressure Humidity
    00:00 +21°C° 0 mm 1 mps 742 mmHg 93%
    01:00 +20°C° 0 mm 1 mps 741 mmHg 94%
    02:00 +20°C° 0 mm 1 mps 741 mmHg 94%
    03:00 +20°C° 0 mm 1 mps 741 mmHg 94%
    04:00 +20°C° 0 mm 1 mps 741 mmHg 94%
    05:00 +20°C° 0 mm 1 mps 741 mmHg 94%
    06:00 +22°C° 0 mm 1 mps 742 mmHg 84%
    07:00 +22°C° 0 mm 0 mps 742 mmHg 75%
    08:00 +24°C° 0 mm 0 mps 743 mmHg 65%
    09:00 +28°C° 0 mm 1 mps 743 mmHg 55%
    10:00 +30°C° 0 mm 1 mps 743 mmHg 44%
    11:00 +33°C° 0 mm 1 mps 743 mmHg 34%
    12:00 +34°C° 0 mm 2 mps 743 mmHg 32%
    13:00 +34°C° 0 mm 2 mps 742 mmHg 30%
    14:00 +35°C° 0 mm 2 mps 741 mmHg 28%
    15:00 +32°C° 0 mm 2 mps 741 mmHg 34%
    16:00 +30°C° 0 mm 2 mps 741 mmHg 41%
    17:00 +28°C° 0 mm 3 mps 741 mmHg 47%
    18:00 +26°C° 0 mm 2 mps 741 mmHg 57%
    19:00 +24°C° 0 mm 1 mps 742 mmHg 67%
    20:00 +22°C° 0 mm 1 mps 742 mmHg 77%
    21:00 +21°C° 0 mm 1 mps 742 mmHg 79%
    22:00 +21°C° 0 mm 1 mps 742 mmHg 81%
    23:00 +20°C° 0 mm 1 mps 742 mmHg 84%

    Day after tomorrow, 20 January, Sunday

    Time Temperature Precipitation Wind Pressure Humidity
    00:00 +20°C° 0 mm 1 mps 742 mmHg 83%
    01:00 +20°C° 0 mm 1 mps 742 mmHg 81%
    02:00 +20°C° 0 mm 1 mps 742 mmHg 80%
    03:00 +20°C° 0 mm 1 mps 742 mmHg 79%
    04:00 +20°C° 0 mm 1 mps 742 mmHg 78%
    05:00 +19°C° 0 mm 1 mps 742 mmHg 76%
    06:00 +20°C° 0 mm 0 mps 743 mmHg 68%
    07:00 +22°C° 0 mm 0 mps 744 mmHg 60%
    08:00 +24°C° 0 mm 0 mps 745 mmHg 51%
    09:00 +26°C° 0 mm 0 mps 745 mmHg 45%
    10:00 +31°C° 0 mm 1 mps 745 mmHg 38%
    11:00 +33°C° 0 mm 1 mps 745 mmHg 31%
    12:00 +34°C° 0 mm 1 mps 744 mmHg 29%
    13:00 +34°C° 0 mm 1 mps 743 mmHg 28%
    14:00 +34°C° 0 mm 1 mps 742 mmHg 26%
    15:00 +32°C° 0 mm 2 mps 742 mmHg 31%
    16:00 +31°C° 0 mm 2 mps 742 mmHg 36%
    17:00 +29°C° 0 mm 2 mps 742 mmHg 41%
    18:00 +27°C° 0 mm 2 mps 742 mmHg 51%
    19:00 +24°C° 0 mm 1 mps 742 mmHg 61%
    20:00 +22°C° 0 mm 1 mps 743 mmHg 71%
    21:00 +22°C° 0 mm 1 mps 743 mmHg 74%
    22:00 +21°C° 0 mm 1 mps 743 mmHg 77%
    23:00 +21°C° 0 mm 1 mps 743 mmHg 81%

    21 January, Monday

    Time Temperature Precipitation Wind Pressure Humidity
    00:00 +20°C° 0 mm 1 mps 742 mmHg 81%
    01:00 +18°C° 0 mm 0 mps 742 mmHg 82%
    02:00 +18°C° 0 mm 0 mps 741 mmHg 82%
    03:00 +18°C° 0 mm 0 mps 742 mmHg 82%
    04:00 +17°C° 0 mm 0 mps 742 mmHg 83%
    05:00 +17°C° 0 mm 0 mps 742 mmHg 83%
    06:00 +19°C° 0 mm 0 mps 742 mmHg 74%
    07:00 +21°C° 0 mm 0 mps 743 mmHg 66%
    08:00 +24°C° 0 mm 0 mps 744 mmHg 57%
    09:00 +28°C° 0 mm 1 mps 744 mmHg 48%
    10:00 +30°C° 0 mm 1 mps 744 mmHg 39%
    11:00 +34°C° 0 mm 2 mps 744 mmHg 30%
    12:00 +34°C° 0 mm 2 mps 743 mmHg 28%
    13:00 +34°C° 0 mm 2 mps 742 mmHg 26%
    14:00 +35°C° 0 mm 3 mps 741 mmHg 24%
    15:00 +33°C° 0 mm 3 mps 741 mmHg 30%
    16:00 +30°C° 0 mm 3 mps 741 mmHg 36%
    17:00 +28°C° 0 mm 3 mps 741 mmHg 41%
    18:00 +26°C° 0 mm 2 mps 741 mmHg 52%
    19:00 +24°C° 0 mm 2 mps 742 mmHg 62%
    20:00 +22°C° 0 mm 1 mps 742 mmHg 72%
    21:00 +21°C° 0 mm 1 mps 742 mmHg 75%
    22:00 +21°C° 0 mm 1 mps 742 mmHg 79%
    23:00 +20°C° 0 mm 1 mps 742 mmHg 82%

    22 January, Tuesday

    Time Temperature Precipitation Wind Pressure Humidity
    00:00 +20°C° 0 mm 1 mps 742 mmHg 82%
    01:00 +20°C° 0 mm 1 mps 741 mmHg 82%
    02:00 +19°C° 0 mm 1 mps 741 mmHg 82%
    03:00 +19°C° 0 mm 1 mps 741 mmHg 81%
    04:00 +19°C° 0 mm 1 mps 741 mmHg 79%
    05:00 +18°C° 0 mm 1 mps 741 mmHg 77%
    06:00 +19°C° 0 mm 0 mps 742 mmHg 67%
    07:00 +21°C° 0 mm 0 mps 743 mmHg 58%
    08:00 +23°C° 0 mm 0 mps 743 mmHg 48%
    09:00 +28°C° 0 mm 1 mps 743 mmHg 40%
    10:00 +30°C° 0 mm 1 mps 743 mmHg 32%
    11:00 +32°C° 0 mm 2 mps 743 mmHg 24%
    12:00 +32°C° 0 mm 2 mps 742 mmHg 24%
    13:00 +34°C° 0 mm 3 mps 741 mmHg 24%
    14:00 +34°C° 0 mm 3 mps 740 mmHg 23%
    15:00 +31°C° 0 mm 3 mps 740 mmHg 28%
    16:00 +29°C° 0 mm 3 mps 741 mmHg 34%
    17:00 +28°C° 0 mm 2 mps 741 mmHg 39%
    18:00 +26°C° 0 mm 2 mps 741 mmHg 49%
    19:00 +23°C° 0 mm 1 mps 742 mmHg 58%
    20:00 +21°C° 0 mm 1 mps 742 mmHg 67%
    21:00 +21°C° 0 mm 1 mps 742 mmHg 70%
    22:00 +20°C° 0 mm 1 mps 743 mmHg 72%
    23:00 +20°C° 0 mm 1 mps 743 mmHg 75%

    23 January, Wednesday

    Time Temperature Precipitation Wind Pressure Humidity
    00:00 +19°C° 0 mm 1 mps 742 mmHg 74%
    01:00 +19°C° 0 mm 1 mps 742 mmHg 73%
    02:00 +19°C° 0 mm 1 mps 741 mmHg 72%
    03:00 +19°C° 0 mm 1 mps 741 mmHg 69%
    04:00 +19°C° 0 mm 1 mps 741 mmHg 67%
    05:00 +18°C° 0 mm 1 mps 741 mmHg 64%
    06:00 +21°C° 0 mm 1 mps 742 mmHg 57%
    07:00 +21°C° 0 mm 0 mps 743 mmHg 50%
    08:00 +23°C° 0 mm 0 mps 743 mmHg 43%
    09:00 +28°C° 0 mm 1 mps 743 mmHg 37%
    10:00 +30°C° 0 mm 1 mps 743 mmHg 31%
    11:00 +32°C° 0 mm 2 mps 743 mmHg 26%
    12:00 +34°C° 0 mm 2 mps 742 mmHg 25%
    13:00 +34°C° 0 mm 2 mps 741 mmHg 24%
    14:00 +35°C° 0 mm 2 mps 741 mmHg 23%
    15:00 +32°C° 0 mm 2 mps 740 mmHg 27%
    16:00 +30°C° 0 mm 2 mps 740 mmHg 32%
    17:00 +28°C° 0 mm 2 mps 740 mmHg 36%
    18:00 +26°C° 0 mm 2 mps 741 mmHg 44%
    19:00 +24°C° 0 mm 1 mps 741 mmHg 52%
    20:00 +22°C° 0 mm 1 mps 742 mmHg 60%
    21:00 +21°C° 0 mm 1 mps 742 mmHg 64%
    22:00 +21°C° 0 mm 1 mps 742 mmHg 67%
    23:00 +20°C° 0 mm 1 mps 742 mmHg 71%
    Show more